Weather History for Lewistown, MT

Change the Weather History Date:

Saturday, June 7, 2014

  Actual Average Record
Temperature  
Mean Temperature 49 °F 56 °F  
Max Temperature 66 °F 68 °F 92 °F (1988)
Min Temperature 32 °F 44 °F 29 °F (1938)
Degree Days  
Heating Degree Days 16 9  
Month to date heating degree days 90 71  
Since 1 June heating degree days 90 71  
Since 1 July heating degree days 8438 8045  
Cooling Degree Days 0 0  
Month to date cooling degree days 0 0  
Year to date cooling degree days 0 2  
Since 1 June cooling degree days 0 0  
Moisture  
Dew Point 34 °F    
Average Humidity 65    
Maximum Humidity 100    
Minimum Humidity 29    
Precipitation  
Precipitation 0.00 in 0.12 in 1.15 in (1967)
Month to date precipitation 0.19 0.84  
Year to date precipitation 5.65 7.10  
Snow  
Snow 0.00 in - - ()
Snow Depth 0.00 in    
Sea Level Pressure  
Sea Level Pressure 30.08 in    
Wind  
Wind Speed 7 mph (East)    
Max Wind Speed 23 mph    
Max Gust Speed 29 mph    
Visibility 10 miles    
Events      
T = Trace of Precipitation, MM = Missing Value Source: NWS Daily Summary

Daily Weather History Graph

Daily Weather History Graph

Search for Another Location

Airport:

Trip Planner

Search our weather history database for the weather conditions in past years. The results will help you decide how hot, cold, wet, or windy it might be!

Date:

Astronomy

Jun. 07, 2014 Rise Set
Actual Time 5:23 AM MDT 9:10 PM MDT
Civil Twilight 4:44 AM MDT 9:49 PM MDT
Nautical Twilight 3:51 AM MDT 10:43 PM MDT
Astronomical Twilight 2:34 AM MDT 12:00 AM MDT
Moon 3:11 PM MDT (6/7) 2:09 AM MDT (6/7)
Length of Visible Light 17h 05m
Length of Day
15h 46m
Waxing Gibbous, 68% of the Moon is Illuminated
Jun 7
Waxing Gibbous
Jun 12
Full
Jun 19
Last Quarter
Jun 27
New
Jul 5
First Quarter

Hourly Weather History & Observations

Time (MDT) Temp. Windchill Dew Point Humidity Pressure Visibility Wind Dir Wind Speed Gust Speed Precip Events Conditions
12:54 AM 37.0 °F 32.4 °F 35.1 °F 93% 30.17 in 10.0 mi SE 5.8 mph - N/A   Clear
1:54 AM 35.1 °F 29.3 °F 33.1 °F 92% 30.17 in 10.0 mi SE 6.9 mph - N/A   Clear
2:54 AM 34.0 °F 28.0 °F 33.1 °F 96% 30.17 in 10.0 mi ESE 6.9 mph - N/A   Clear
3:54 AM 33.1 °F 26.1 °F 32.0 °F 96% 30.17 in 10.0 mi ESE 8.1 mph - N/A   Clear
4:54 AM 34.0 °F 27.2 °F 32.0 °F 92% 30.15 in 10.0 mi SE 8.1 mph - N/A   Clear
7:54 AM 44.1 °F 40.8 °F 37.9 °F 79% 30.11 in 10.0 mi ESE 5.8 mph - N/A   Overcast
8:54 AM 52.0 °F - 37.0 °F 57% 30.08 in 10.0 mi ESE 10.4 mph - N/A   Scattered Clouds
9:54 AM 57.0 °F - 34.0 °F 42% 30.07 in 10.0 mi East 6.9 mph - N/A   Clear
10:54 AM 59.0 °F - 34.0 °F 39% 30.05 in 10.0 mi Variable 5.8 mph - N/A   Clear
11:54 AM 61.0 °F - 35.1 °F 38% 30.04 in 10.0 mi Variable 3.5 mph - N/A   Mostly Cloudy
12:54 PM 61.0 °F - 33.1 °F 35% 30.04 in 10.0 mi Calm Calm - N/A   Overcast
1:54 PM 60.1 °F - 34.0 °F 38% 30.05 in 10.0 mi West 10.4 mph - N/A   Overcast
2:54 PM 62.1 °F - 34.0 °F 35% 30.05 in 10.0 mi West 16.1 mph 21.9 mph N/A   Overcast
3:54 PM 64.9 °F - 35.1 °F 33% 30.03 in 10.0 mi NNW 8.1 mph - N/A   Partly Cloudy
4:54 PM 63.0 °F - 37.0 °F 38% 30.04 in 10.0 mi NNW 8.1 mph - N/A   Mostly Cloudy
5:54 PM 64.0 °F - 35.1 °F 34% 30.03 in 10.0 mi North 10.4 mph 19.6 mph N/A   Partly Cloudy
6:54 PM 63.0 °F - 35.1 °F 35% 30.02 in 10.0 mi NW 9.2 mph - N/A   Clear
7:54 PM 60.1 °F - 28.9 °F 31% 30.03 in 10.0 mi NNW 8.1 mph - N/A   Clear
8:54 PM 55.9 °F - 32.0 °F 40% 30.04 in 10.0 mi North 4.6 mph - N/A   Partly Cloudy
9:54 PM 52.0 °F - 32.0 °F 47% 30.06 in 10.0 mi NE 3.5 mph - N/A   Clear
10:54 PM 46.9 °F - 34.0 °F 61% 30.08 in 10.0 mi South 5.8 mph - N/A   Scattered Clouds
11:54 PM 45.0 °F 43.5 °F 33.1 °F 63% 30.08 in 10.0 mi SSW 3.5 mph - N/A   Scattered Clouds